Change the Weather History Date:

Wednesday, April 17, 2013

  Actual Average Record
Temperature  
Mean Temperature 48 °F -  
Max Temperature 64 °F 54 °F 91 °F (2002)
Min Temperature 33 °F 31 °F 17 °F (2014)
Degree Days  
Heating Degree Days 16    
Moisture  
Dew Point 30 °F    
Average Humidity 43    
Maximum Humidity 77    
Minimum Humidity 22    
Precipitation  
Precipitation 0.00 in - - ()
Sea Level Pressure  
Sea Level Pressure 30.16 in    
Wind  
Wind Speed 11 mph (NW)    
Max Wind Speed 21 mph    
Max Gust Speed 26 mph    
Visibility 10 miles    
Events      
Averages and records for this station are not official NWS values.
T = Trace of Precipitation, MM = Missing Value Source: NWS Daily Summary

Daily Weather History Graph

Daily Weather History Graph

Search for Another Location

Airport or City:

Trip Planner

Search our weather history database for the weather conditions in past years. The results will help you decide how hot, cold, wet, or windy it might be!

Date:

Astronomy

Apr. 17, 2013 Rise Set
Actual Time 5:56 AM EDT 7:28 PM EDT
Civil Twilight 5:26 AM EDT 7:58 PM EDT
Nautical Twilight 4:50 AM EDT 8:34 PM EDT
Astronomical Twilight 4:12 AM EDT 9:13 PM EDT
Moon 11:04 AM EDT (4/17) 1:07 AM EDT (4/17)
Length of Visible Light 14h 31m
Length of Day
13h 31m
Waxing Crescent, 42% of the Moon is Illuminated
Apr 17
Waxing Crescent
Apr 18
First Quarter
Apr 25
Full
May 2
Last Quarter
May 9
New

Hourly Weather History & Observations

Time (EDT) Temp. Windchill Dew Point Humidity Pressure Visibility Wind Dir Wind Speed Gust Speed Precip Events Conditions
12:15 AM 57.2 °F - 48.2 °F 72% 29.99 in 10.0 mi SW 12.7 mph 18.4 mph N/A   Overcast
12:35 AM 55.4 °F - 48.2 °F 77% 29.99 in 10.0 mi SW 15.0 mph 20.7 mph N/A   Mostly Cloudy
12:55 AM 55.4 °F - 48.2 °F 77% 29.98 in 10.0 mi WSW 11.5 mph - N/A   Mostly Cloudy
1:15 AM 55.4 °F - 48.2 °F 77% 30.00 in 10.0 mi WSW 11.5 mph - N/A   Overcast
1:35 AM 57.2 °F - 48.2 °F 72% 30.00 in 10.0 mi West 9.2 mph - N/A   Overcast
2:15 AM 57.2 °F - 48.2 °F 72% 30.00 in 10.0 mi West 13.8 mph - N/A   Clear
2:35 AM 57.2 °F - 48.2 °F 72% 30.01 in 10.0 mi West 10.4 mph - N/A   Clear
2:55 AM 57.2 °F - 46.4 °F 67% 30.03 in 10.0 mi NW 13.8 mph 19.6 mph N/A   Scattered Clouds
3:15 AM 55.4 °F - 39.2 °F 54% 30.04 in 10.0 mi WNW 10.4 mph 18.4 mph N/A   Scattered Clouds
3:35 AM 55.4 °F - 39.2 °F 54% 30.05 in 10.0 mi WNW 12.7 mph 18.4 mph N/A   Partly Cloudy
3:55 AM 53.6 °F - 37.4 °F 54% 30.05 in 10.0 mi West 13.8 mph 19.6 mph N/A   Partly Cloudy
4:15 AM 53.6 °F - 35.6 °F 51% 30.05 in 10.0 mi WNW 13.8 mph 21.9 mph N/A   Clear
4:35 AM 51.8 °F - 35.6 °F 54% 30.06 in 10.0 mi WNW 11.5 mph 16.1 mph N/A   Clear
4:55 AM 51.8 °F - 35.6 °F 54% 30.07 in 10.0 mi WNW 11.5 mph 19.6 mph N/A   Clear
5:15 AM 50.0 °F - 35.6 °F 58% 30.08 in 10.0 mi WNW 12.7 mph 18.4 mph N/A   Clear
5:35 AM 48.2 °F - 32.0 °F 54% 30.09 in 10.0 mi NW 9.2 mph 17.3 mph N/A   Clear
6:15 AM 48.2 °F - 28.4 °F 46% 30.09 in 10.0 mi WNW 9.2 mph 16.1 mph N/A   Clear
6:35 AM 48.2 °F - 28.4 °F 46% 30.11 in 10.0 mi WNW 6.9 mph - N/A   Clear
6:55 AM 48.2 °F - 28.4 °F 46% 30.11 in 10.0 mi WNW 11.5 mph - N/A   Clear
7:15 AM 48.2 °F - 28.4 °F 46% 30.13 in 10.0 mi WNW 10.4 mph - N/A   Clear
7:35 AM 48.2 °F - 28.4 °F 46% 30.13 in 10.0 mi WNW 12.7 mph - N/A   Clear
7:55 AM 50.0 °F - 28.4 °F 43% 30.13 in 10.0 mi WNW 9.2 mph - N/A   Clear
8:15 AM 50.0 °F - 28.4 °F 43% 30.14 in 10.0 mi WNW 12.7 mph 19.6 mph N/A   Clear
8:35 AM 51.8 °F - 26.6 °F 38% 30.15 in 10.0 mi NW 8.1 mph 18.4 mph N/A   Clear
8:55 AM 51.8 °F - 28.4 °F 41% 30.15 in 10.0 mi West 10.4 mph 16.1 mph N/A   Clear
9:15 AM 53.6 °F - 26.6 °F 35% 30.16 in 10.0 mi NW 4.6 mph - N/A   Clear
9:35 AM 53.6 °F - 26.6 °F 35% 30.15 in 10.0 mi NW 8.1 mph 17.3 mph N/A   Clear
10:15 AM 55.4 °F - 26.6 °F 33% 30.16 in 10.0 mi NW 9.2 mph - N/A   Clear
10:35 AM 55.4 °F - 26.6 °F 33% 30.16 in 10.0 mi WNW 15.0 mph 19.6 mph N/A   Clear
10:55 AM 57.2 °F - 26.6 °F 31% 30.17 in 10.0 mi WNW 11.5 mph 16.1 mph N/A   Clear
11:15 AM 57.2 °F - 26.6 °F 31% 30.17 in 10.0 mi NW 9.2 mph 16.1 mph N/A   Clear
11:35 AM 57.2 °F - 26.6 °F 31% 30.17 in 10.0 mi NNW 9.2 mph 17.3 mph N/A   Clear
11:55 AM 57.2 °F - 26.6 °F 31% 30.16 in 10.0 mi WNW 11.5 mph 18.4 mph N/A   Clear
12:15 PM 60.8 °F - 26.6 °F 27% 30.16 in 10.0 mi West 13.8 mph 19.6 mph N/A   Clear
12:35 PM 60.8 °F - 26.6 °F 27% 30.16 in 10.0 mi West 6.9 mph 17.3 mph N/A   Clear
12:55 PM 60.8 °F - 26.6 °F 27% 30.16 in 10.0 mi NNW 4.6 mph - N/A   Clear
1:15 PM 62.6 °F - 26.6 °F 26% 30.15 in 10.0 mi North 12.7 mph 20.7 mph N/A   Clear
1:35 PM 62.6 °F - 24.8 °F 24% 30.15 in 10.0 mi NW 11.5 mph 20.7 mph N/A   Clear
1:55 PM 62.6 °F - 26.6 °F 26% 30.15 in 10.0 mi NNW 10.4 mph 18.4 mph N/A   Clear
2:15 PM 62.6 °F - 24.8 °F 24% 30.15 in 10.0 mi West 11.5 mph 20.7 mph N/A   Clear
2:35 PM 62.6 °F - 24.8 °F 24% 30.15 in 10.0 mi NNW 11.5 mph - N/A   Clear
2:55 PM 64.4 °F - 24.8 °F 22% 30.16 in 10.0 mi NNW 17.3 mph 26.5 mph N/A   Clear
3:15 PM 62.6 °F - 23.0 °F 22% 30.16 in 10.0 mi NNW 17.3 mph 20.7 mph N/A   Clear
3:36 PM 62.6 °F - 23.0 °F 22% 30.16 in 10.0 mi North 20.7 mph 26.5 mph N/A   Clear
3:55 PM 62.6 °F - 23.0 °F 22% 30.17 in 10.0 mi NNW 13.8 mph 18.4 mph N/A   Clear
4:35 PM 62.6 °F - 24.8 °F 24% 30.19 in 10.0 mi NNW 12.7 mph 17.3 mph N/A   Clear
4:55 PM 62.6 °F - 24.8 °F 24% 30.19 in 10.0 mi North 13.8 mph 19.6 mph N/A   Clear
5:15 PM 62.6 °F - 24.8 °F 24% 30.20 in 10.0 mi NNW 13.8 mph 20.7 mph N/A   Clear
5:55 PM 60.8 °F - 21.2 °F 22% 30.22 in 10.0 mi NW 10.4 mph 19.6 mph N/A   Clear
6:16 PM 60.8 °F - 23.0 °F 23% 30.23 in 10.0 mi North 15.0 mph - N/A   Clear
6:35 PM 59.0 °F - 21.2 °F 23% 30.24 in 10.0 mi North 10.4 mph - N/A   Clear
6:55 PM 57.2 °F - 21.2 °F 25% 30.25 in 10.0 mi NNW 8.1 mph - N/A   Clear
7:15 PM 57.2 °F - 23.0 °F 27% 30.26 in 10.0 mi NNW 5.8 mph - N/A   Clear
7:35 PM 55.4 °F - 23.0 °F 29% 30.27 in 10.0 mi NNW 6.9 mph - N/A   Clear
7:55 PM 53.6 °F - 23.0 °F 30% 30.28 in 10.0 mi NW 5.8 mph - N/A   Clear
8:15 PM 51.8 °F - 23.0 °F 33% 30.30 in 10.0 mi WNW 4.6 mph - N/A   Clear
8:35 PM 51.8 °F - 24.8 °F 35% 30.31 in 10.0 mi WNW 4.6 mph - N/A   Clear
8:55 PM 46.4 °F 44.3 °F 24.8 °F 43% 30.32 in 10.0 mi NW 4.6 mph - N/A   Clear
9:15 PM 44.6 °F 42.2 °F 26.6 °F 49% 30.32 in 10.0 mi North 4.6 mph - N/A   Clear
9:35 PM 41.0 °F 37.1 °F 28.4 °F 61% 30.32 in 10.0 mi NNW 5.8 mph - N/A   Clear
9:55 PM 39.2 °F - 30.2 °F 70% 30.33 in 10.0 mi Calm Calm - N/A   Clear
10:15 PM 37.4 °F - 26.6 °F 65% 30.32 in 10.0 mi Calm Calm - N/A   Clear
10:35 PM 35.6 °F - 28.4 °F 75% 30.32 in 10.0 mi Calm Calm - N/A   Clear
10:55 PM 35.6 °F - 26.6 °F 70% 30.33 in 10.0 mi Calm Calm - N/A   Clear
11:15 PM 33.8 °F 30.8 °F 26.6 °F 75% 30.33 in 10.0 mi SW 3.5 mph - N/A   Clear
11:35 PM 33.8 °F - 24.8 °F 70% 30.33 in 10.0 mi Calm Calm - N/A   Clear